Location: Gra�ena de las Garrigas
(41.4328°N, 0.6472°E)
Time: 17:54:18
(UTC+00:00)

Daily predictions for brighter satellites

Satellite Brightness Start Highest point End
(mag) Time Altitude Azimuth Time Altitude Azimuth Time Altitude Azimuth
OAO 2 Rocket 4.3 19:58:24 10° SW 20:03:01 31° SSE 20:07:40 10° ESE
MOS 1 Rocket 4.1 19:58:56 10° N 20:03:37 61° WNW 20:08:33 10° SSW
SJ-6B 3.5 20:01:48 10° S 20:05:41 58° W 20:09:42 10° NNW
Cosmos 1461 3.2 20:08:20 10° NNW 20:13:05 88° ENE 20:17:49 10° SSE
Cosmos 1455 3.4 20:10:01 10° NNE 20:13:19 27° ENE 20:16:36 10° SE
Cosmos 1703 4.5 20:15:54 10° SE 20:19:03 24° E 20:22:14 10° NE
COSMOS 2428 4.2 20:16:16 10° SE 20:19:40 16° E 20:23:04 10° ENE
Geosat 4.0 20:15:31 10° SSE 20:20:32 85° ENE 20:25:36 10° NNW
Cosmos 2322 4.5 20:18:22 10° SSE 20:23:17 31° ESE 20:28:14 10° NE
Cosmos 1812 Rocket 3.7 20:19:25 10° N 20:23:41 54° E 20:27:54 10° SSE
Delta 2 Rocket 3.8 20:22:31 10° WSW 20:25:34 29° S 20:28:10 12° ESE
Cosmos 1602 Rocket 3.5 20:23:17 10° S 20:27:41 83° E 20:32:09 10° N
CZ-2C R/B 4.2 20:22:59 10° N 20:27:44 69° WNW 20:32:28 10° SSW
MetOp-B 4.4 20:27:53 10° SSE 20:33:05 56° ENE 20:38:20 10° N
Cosmos 2263 Rocket 3.3 20:27:57 10° NW 20:33:09 41° WSW 20:38:18 10° S
Atlas Centaur 2 3.3 20:28:26 10° SW 20:33:20 29° S 20:38:47 12° ESE
Nadezhda 1 Rocket 4.1 20:28:03 10° N 20:34:26 66° E 20:40:46 10° SSE
Terra 3.9 20:32:22 10° E 20:34:55 14° ENE 20:37:26 10° NNE
Cosmos 2219 Rocket 3.2 20:31:05 10° SSE 20:35:32 25° ESE 20:40:01 10° NE
Cosmos 2360 Rocket 2.1 20:31:35 10° SSW 20:37:12 77° ESE 20:42:52 10° NNE
IGS 5A 4.2 20:35:34 14° SE 20:38:49 39° ENE 20:42:42 10° N
Meteor 2-1 Rocket 4.4 20:34:08 10° N 20:40:00 86° W 20:45:54 10° S
IRIS 3.8 20:37:44 10° WSW 20:41:08 65° S 20:43:19 12° E
Cosmos 2333 Rocket 2.9 20:40:13 10° SSE 20:45:14 33° ESE 20:50:17 10° NE
Resurs 01 Rocket 2.1 20:46:11 10° S 20:50:33 60° W 20:54:56 10° NNW
Cosmos 1818 3.7 20:47:02 10° SW 20:52:27 79° WNW 20:57:55 10° NNE
Cosmos 773 Rocket 4.2 20:50:14 10° S 20:55:19 50° ESE 21:00:26 10° NNE
CZ-2C R/B 4.4 20:50:55 10° N 20:55:44 34° WNW 21:00:27 10° SW
Cosmos-2242 3.3 20:51:57 10° N 20:56:13 53° E 20:59:06 20° SSE
SL-16 R/B 4.0 20:51:10 10° WSW 20:56:17 34° WNW 21:01:27 10° N
ERS-1 Rocket 3.7 20:56:51 18° SE 21:00:07 40° ENE 21:04:49 10° N
GEOS 3 Rocket 3.7 21:00:19 10° NE 21:05:44 90° NW 21:11:08 10° SW
USA 215 3.2 21:02:42 10° NE 21:09:13 65° SE 21:15:41 10° SW
ATLAS 5 CENTAUR R/B 2.2 21:05:16 10° SW 21:09:17 57° NW 21:13:46 10° NNE
Cosmos 2278 Rocket 4.0 21:05:13 10° N 21:09:18 20° NE 21:13:09 11° E
Meteor 1-11 4.3 21:05:32 15° S 21:10:04 57° E 21:15:37 10° NNE
USA 245 2.9 21:08:35 25° S 21:10:20 84° WSW 21:14:16 10° NNW
Cosmos 1758 Rocket 4.0 21:08:44 10° SSW 21:13:11 66° W 21:17:41 10° N
Cosmos 1844 Rocket 2.6 21:09:02 10° NNW 21:14:38 90° N 21:18:16 23° SSE
Cosmos 1400 Rocket 2.7 21:11:33 10° N 21:15:32 88° ENE 21:17:42 26° S
SPOT 5 3.3 21:13:57 23° SE 21:16:47 49° ENE 21:21:27 10° N
Meteor 2-10 Rocket 4.4 21:13:45 10° NNW 21:18:39 47° W 21:23:39 10° SSW
Spot 2 Rocket 3.7 21:16:44 18° S 21:20:35 70° WSW 21:25:41 10° NNW
OAO 3 Rocket 4.1 21:18:08 10° WSW 21:22:30 32° SSW 21:23:58 27° SSE
USA 81 4.1 21:19:51 23° SSE 21:23:06 59° E 21:28:18 10° NNE
Landsat 7 4.1 21:21:48 19° S 21:25:07 66° WSW 21:29:52 10° NNW
BREEZE M DEB (TANK) 2.5 21:24:59 10° NW 21:27:18 40° NNE 21:27:39 36° NE
Cosmos 2181 Rocket 4.0 21:24:16 10° N 21:30:37 68° E 21:34:15 26° SSE
Cosmos 2074 Rocket 4.5 21:29:15 26° SE 21:32:14 42° E 21:38:01 10° NNE
SPOT 1/Viking Rocket 3.7 21:31:53 22° S 21:35:11 67° WSW 21:40:20 10° NNW
Cosmos 1953 Rocket 3.7 21:33:11 18° SSW 21:36:19 68° W 21:40:38 10° N
USA 267 4.2 21:34:09 10° E 21:40:12 41° NNE 21:46:16 10° NW
Cosmos 2084 4.2 21:42:08 10° NNW 21:46:27 46° NE 21:48:05 31° E
OAO 2 Rocket 3.8 21:42:20 10° WSW 21:47:20 42° S 21:48:29 37° SSE
Cosmos 1842 Rocket 3.9 21:43:47 10° N 21:48:01 49° E 21:49:02 40° ESE
Cosmos 923 Rocket 4.3 21:52:20 37° SE 21:53:40 46° ESE 21:58:42 10° NNE
MTI 4.5 21:50:48 10° NNE 21:53:10 39° ENE 21:53:10 39° ENE
Cosmos 1825 4.4 21:58:09 13° ENE 21:58:09 13° ENE 21:59:23 10° NE
ATLAS CENTAUR R/B 1.2 21:54:21 10° NNW 21:57:59 58° NE 21:58:26 53° E
Cosmos 1980 4.0 21:56:55 37° SE 21:58:24 45° ESE 22:03:45 10° NE
Cosmos 967 Rocket 4.4 21:55:33 18° SSW 22:00:26 70° ESE 22:06:52 10° NE
COSMOS 2428 3.0 21:57:38 10° SSW 22:03:16 69° WNW 22:08:57 10° NNE
Cosmos 1869 3.2 22:05:01 10° N 22:08:59 69° E 22:09:22 63° ESE
NOSS 0 Rocket 3.8 22:07:31 30° S 22:10:39 72° ESE 22:16:48 10° NNE
Terra 2.0 22:10:34 41° SSW 22:12:05 66° WSW 22:16:50 10° NNW
Cosmos 2237 Rocket 2.2 22:14:58 43° SSE 22:16:37 61° ESE 22:22:14 10° NNE
Genesis I 4.3 22:18:35 33° ENE 22:18:35 33° ENE 22:21:05 10° NE
BREEZE-M DEB (TANK) 4.4 22:15:38 10° W 22:18:38 28° SW 22:18:38 28° SW
Cosmos 2344 3.7 22:16:01 33° S 22:19:04 51° ESE 22:26:27 10° NE
Cosmos 2219 Rocket 3.2 22:13:51 10° SW 22:19:10 45° WNW 22:24:34 10° NNE
Elektron 1 4.1 22:21:21 70° NE 22:21:21 70° NE 22:25:19 10° NE
Atlas Centaur 2 3.5 22:16:26 10° WSW 22:21:21 29° SSW 22:21:21 29° SSW
BREEZE-M R/B 3.8 22:12:32 10° WNW 22:22:10 71° SW 22:23:36 48° SSE
DELTA 2 R/B (1) 3.5 22:22:13 10° WSW 22:27:42 60° SSE 22:30:03 33° E
Cosmos 1315 Rocket 4.0 22:25:20 10° NNW 22:29:06 36° W 22:29:55 32° WSW
Cosmos 2333 Rocket 3.6 22:24:11 10° SW 22:29:24 36° WNW 22:34:41 10° N
Cosmos 2184 Rocket 4.1 22:27:10 31° SSW 22:30:17 71° W 22:36:35 10° N
Thor Agena Rocket 3.5 22:27:39 10° NNE 22:32:42 59° ESE 22:33:18 54° SE
Meteor 2-2 Rocket 4.3 22:28:23 10° NNW 22:34:10 74° W 22:35:55 46° SSW
Cosmos 2221 3.0 22:34:30 10° NNW 22:38:46 52° W 22:39:20 48° WSW
BREEZE-M DEB (TANK) 3.7 22:36:54 10° NW 22:40:18 24° N 22:41:22 19° NE
Cosmos 1892 3.0 22:41:59 57° W 22:41:59 57° W 22:45:44 10° N
Iridium 2 4.1 22:39:09 10° N 22:42:26 54° NE 22:42:26 54° NE
ATLAS 2AS CENTAUR R/B 3.2 22:35:42 10° NNW 22:43:09 58° NE 22:46:25 32° ESE
Cosmos 1371 Rocket 4.5 22:38:02 10° N 22:43:10 51° ENE 22:44:15 44° ESE
EO 1 Del DPAF 3.7 22:41:56 10° NNE 22:44:59 53° NE 22:44:59 53° NE
Okean 3 Rocket 4.4 22:47:03 37° ENE 22:47:03 37° ENE 22:50:46 10° NNE
MOS 1-B Rocket 4.3 22:40:15 10° NNE 22:47:49 72° ESE 22:49:57 46° S
Cosmos 2112 Rocket 4.0 22:48:23 54° SSW 22:49:39 86° WNW 22:55:03 10° NNE
USA 215 4.4 22:45:54 10° NE 22:52:01 44° NNW 22:58:08 10° W
Cosmos 1606 4.2 22:49:25 10° NNE 22:52:19 27° ENE 22:52:19 27° ENE
Cosmos 158 Rocket 3.9 22:52:56 55° SW 22:53:54 72° WNW 22:58:48 10° NNE
Cosmos 2278 Rocket 2.2 22:48:18 10° NNW 22:53:56 69° WSW 22:54:59 56° SSW
Spot 4 3.6 22:59:07 77° SSE 22:59:29 89° ENE 23:04:17 10° NNW
SL-16 R/B 2.4 23:00:46 50° ESE 23:00:58 50° ESE 23:06:27 10° NE
TIMED 4.5 23:01:49 79° NE 23:01:49 79° NE 23:05:57 10° NNE
Cosmos 1943 Rocket 4.1 22:57:21 10° N 23:01:37 21° NE 23:04:40 14° E
Cosmos 2058 4.0 23:01:10 34° W 23:01:45 36° WNW 23:05:36 10° N
Cosmos 1408 3.5 23:03:24 45° NW 23:03:24 45° NW 23:06:20 10° N
Gblst 52 Del rocket 4.3 23:00:11 10° WNW 23:06:05 75° SW 23:07:28 56° SSE
Cosmos 2056 Rocket 3.6 23:01:45 10° NNW 23:07:11 71° ENE 23:07:58 61° ESE
Cosmos 2154 Rocket 4.5 23:07:50 35° SW 23:10:13 53° WNW 23:16:18 10° N
Nadezhda 3 Rocket 4.3 23:05:55 10° NNW 23:12:09 59° W 23:13:54 44° SW
Cosmos 2341 Rocket 3.9 23:11:46 56° S 23:13:15 89° E 23:19:30 10° N
Meteor 2-3 Rocket 4.1 23:21:02 48° ESE 23:21:28 49° E 23:26:55 10° NNE
USA 267 3.2 23:21:24 53° SSE 23:22:57 70° SW 23:29:31 10° NW
Cosmos 2151 3.4 23:23:52 58° WNW 23:23:52 58° WNW 23:27:56 10° N
IRIDIUM 104 4.3 23:23:26 67° ESE 23:23:45 68° E 23:28:56 10° N
Helios 1A 4.1 23:24:53 35° ENE 23:24:53 35° ENE 23:28:33 10° N
SL-8 Rocket 3.9 23:30:59 60° S 23:32:12 88° W 23:38:23 10° N
Cosmos 1825 3.6 23:32:56 33° WNW 23:32:56 33° WNW 23:35:59 10° N
IRIDIUM 114 4.1 23:32:35 78° SSE 23:32:53 83° E 23:38:08 10° N
Cosmos 1340 3.8 23:34:23 40° NNE 23:34:23 40° NNE 23:36:58 10° NNE
Cosmos 1452 Rocket 4.2 23:29:09 10° N 23:34:10 43° ENE 23:35:06 39° E
ALOS 2 2.7 23:35:27 70° NW 23:35:27 70° NW 23:39:28 10° NNW
Cosmos 1408 Rocket 3.9 23:35:56 58° NE 23:35:56 58° NE 23:39:44 10° NNE
COSMOS 2455 3.9 23:30:01 10° NNW 23:35:40 39° NE 23:38:24 26° ESE
Meteor 2-12 Rocket 4.3 23:37:27 64° S 23:38:30 86° E 23:44:40 10° N
Cosmos 1933 3.9 23:34:58 10° N 23:38:13 56° N 23:38:13 56° N
Cosmos 1151 Rocket 3.2 23:36:14 10° N 23:40:03 68° N 23:40:03 68° N
IRIDIUM 103 4.2 23:41:42 76° SW 23:42:01 81° W 23:47:17 10° N
Cosmos 44 3.5 23:43:37 55° NW 23:43:39 55° NW 23:47:59 10° NNE
Cosmos 2369 Rocket 3.6 23:41:28 10° N 23:46:25 31° ENE 23:48:49 23° E
Cosmos 1727 Rocket 4.2 23:40:35 10° N 23:46:47 63° E 23:48:04 52° SE
GP-B 3.5 23:44:45 10° N 23:48:50 57° WNW 23:48:50 57° WNW
Cosmos 371 Rocket 3.2 23:45:36 10° NNW 23:50:25 79° ENE 23:50:25 79° ENE
Helios 1B rocket 4.0 23:52:38 10° NE 23:55:23 28° ENE 23:55:23 28° ENE
